Regional Weather Roundup
Issued by NWS

Home | Current Version | Previous Version | Graphics & Text | Print | Product List | Glossary On
Versions: 1 2 3 4 5 6 7 8 9 10 11 12 13 14 15 16 17 18 19 20 21 22 23 24 25 26 27 28 29 30 31 32 33 34 35 36 37 38 39 40 41 42 43 44 45 46 47 48 49 50
543
ASUS43 KBIS 290631
RWRND
NORTH DAKOTA REGIONAL WEATHER ROUNDUP
NATIONAL WEATHER SERVICE EASTERN NORTH DAKOTA/GRAND FORKS ND
100 AM CDT THU JUN 29 2017

  NOTE: "FAIR" INDICATES FEW OR NO CLOUDS BELOW 12,000 FEET WITH NO
  SIGNIFICANT WEATHER AND/OR OBSTRUCTIONS TO VISIBILITY.

NDZ001>003-009>011-017-290700-
...NORTHWEST NORTH DAKOTA...

CITY           SKY/WX    TMP DP  RH WIND       PRES   REMARKS
WILLISTON      FAIR      55  48  77 N5        29.79S
6HR MIN TEMP:  55; 6HR MAX TEMP:  76; 6HR PCP: TRACE;

MINOT          FAIR      63  50  62 NW3       29.76R
MINOT AFB      FAIR      53  49  86 NW5       29.76R
6HR MIN TEMP:  53; 6HR MAX TEMP:  81;

$$

NDZ018>021-031>035-040>046-290700-
...SOUTHWEST NORTH DAKOTA...

CITY           SKY/WX    TMP DP  RH WIND       PRES   REMARKS
BISMARCK       FAIR      63  57  81 NE3       29.77R
DICKINSON      FAIR      62  42  47 N6        29.77S
GARRISON         N/A     57  52  83 N3        29.77R
HETTINGER      FAIR      64  43  46 CALM      29.78F
$$

NDZ004>008-012>016-024-026-027-054-290700-
...NORTHEAST NORTH DAKOTA...

CITY           SKY/WX    TMP DP  RH WIND       PRES   REMARKS
GRAND FORKS    CLOUDY    64  62  93 N9        29.71R
GRAND FORKS AF CLOUDY    59  59 100 CALM      29.71S FOG
DEVILS LAKE    FAIR      59  56  89 CALM      29.75R
$$

NDZ022-023-025-028>030-036>039-047>053-290700-
...SOUTHEAST NORTH DAKOTA...

CITY           SKY/WX    TMP DP  RH WIND       PRES   REMARKS
JAMESTOWN      FAIR      57  53  86 NW5       29.73R
FARGO          CLOUDY    62  61  96 N3        29.71R
WAHPETON       CLOUDY    55  54  94 NW5       29.70S VSB 1/4
$$




USA.gov is the U.S. government's official web portal to all federal, state and local government web resources and services.